Regional Weather Roundup
Issued by NWS Albany, NY

Home | Current Version | Previous Version | Graphics & Text | Print | Product List | Glossary Off
Versions: 1 2 3 4 5 6 7 8 9 10 11 12 13 14 15 16 17 18 19 20 21 22 23 24 25 26 27 28 29 30 31 32 33 34 35 36 37 38 39 40 41 42 43 44 45 46 47 48 49 50

000
ASUS41 KALY 292010
RWRALY

NEW YORK STATE HOURLY WEATHER ROUNDUP
NATIONAL WEATHER SERVICE ALBANY NY
400 PM EDT WED JUL 29 2015

NOTE: "FAIR" INDICATES FEW OR NO CLOUDS BELOW 12,000 FEET WITH NO
SIGNIFICANT WEATHER AND/OR NO OBSTRUCTIONS TO VISIBILITY.

NYZ032-033-038>043-046>054-057>066-NYZ062>081-292100-
EAST


CITY           SKY/WX    TMP DP  RH WIND       PRES   REMARKS
ALBANY         PTSUNNY   94  63  35 VRB6      29.91F HX  95
GLENS FALLS    SUNNY     90  63  40 SW12G20   29.91S HX  91
POUGHKEEPSIE   MOSUNNY   94  57  28 VRB3      29.92F HX  92
NEWBURGH       MOSUNNY   93  59  31 W8        29.96F HX  92
MONTGOMERY     MOSUNNY   92  64  39 VRB7      29.94F HX  93
WHITE PLAINS   MOSUNNY   90  65  43 S5        29.94F HX  92
ISLIP          PTSUNNY   91  66  43 SW14G21   29.93F HX  93
NEW YORK CITY  PTSUNNY   94  62  34 S15G23    29.91F HX  94
CENTRAL PARK   MOSUNNY   93  63  36 CALM      29.95F HX  94
$$

NYZ005>009-017-018-044>046-055-056-292100-
CENTRAL


CITY           SKY/WX    TMP DP  RH WIND       PRES   REMARKS
FULTON         SUNNY     92  67  43 W10       29.93F HX  95
SYRACUSE       MOSUNNY   91  64  40 SW12      29.92F HX  92
ROME           MOSUNNY   90  66  45 VRB7      29.94F HX  92
ELMIRA         MOSUNNY   89  63  41 SW12      29.94F HX  90
BINGHAMTON     MOSUNNY   84  63  49 S6        30.00F
MONTICELLO     MOSUNNY   84  64  51 SW7       30.02F
$$

NYZ026>034-041>043-292100-
NORTH


CITY           SKY/WX    TMP DP  RH WIND       PRES   REMARKS
WATERTOWN      SUNNY     86  67  52 W9        29.92F
FORT DRUM      NOT AVBL
MASSENA        SUNNY     90  68  48 W13       29.89F HX  94
SARANAC LAKE   MOSUNNY   84  62  47 VRB6      29.96S
PLATTSBURGH    LGT RAIN  82  71  69 SW5       29.88S
$$

NYZ001>004-010>016-019>021-292100-
WEST


CITY           SKY/WX    TMP DP  RH WIND       PRES   REMARKS
NIAGARA FALLS  PTSUNNY   88  59  37 SW9       29.90F
BUFFALO        PTSUNNY   89  58  34 W9        29.91F
DUNKIRK        SUNNY     86  66  51 N8        29.92F
JAMESTOWN      MOSUNNY   82  63  51 S8        29.99F
WELLSVILLE     SUNNY     86  56  35 SW8       30.04F
ROCHESTER      MOSUNNY   91  61  36 S9        29.91F HX  91
PENN YAN       MOSUNNY   88  64  44 SW8       29.96F
$$

             KEY
       WCI = WIND CHILL INDEX
       VSB = VISIBILITY
       HX  = HEAT INDEX
$$


USA.gov is the U.S. government's official web portal to all federal, state and local government web resources and services.